Location: Nairn
(57.5833°N, 3.8667°W)
Time: 01:03:08
(UTC+00:00)

Tiros 1 despin weight - Pass Details

Date: 01 December 2020
Orbit: 594 x 641 km, 48.2° (Epoch: 22 January)

Event Time Altitude Azimuth Distance (km) Brightness Sun altitude
Rises 16:45:27 0° 265° (W) 2,946 ? -8.4°
Reaches altitude 10° 16:48:58 10° 238° (WSW) 2,032 ? -8.9°
Maximum altitude 16:51:06 13° 211° (SSW) 1,830 ? -9.1°
Drops below altitude 10° 16:53:13 10° 184° (S) 2,022 ? -9.4°
Sets 16:56:42 0° 157° (SSE) 2,919 ? -9.8°
